| time (UTC) | temp C | wind direction | speed KPH | gust KPH | rain 1hr cm | rain 24hr cm | rain mn cm | humidity % | barometer mb |
| 20260507021322 | 15 | 248 | 3.2 | 4.8 | 0.00 | 0.30 | 0.30 | 84 | 1008.7 |
| 20260507020418 | 15 | 225 | 1.6 | 4.8 | 0.00 | 0.30 | 0.30 | 83 | 1008.5 |
| 20260507015321 | 15 | 224 | 4.8 | 9.7 | 0.00 | 0.30 | 0.30 | 84 | 1008.5 |
| 20260507014419 | 14 | 225 | 3.2 | 8.0 | 0.00 | 0.30 | 0.30 | 83 | 1008.7 |
| 20260507011420 | 15 | 199 | 1.6 | 8.0 | 0.00 | 0.30 | 0.30 | 83 | 1008.5 |
| 20260507010422 | 15 | 211 | 3.2 | 6.4 | 0.00 | 0.30 | 0.30 | 81 | 1008.7 |
| 20260507005422 | 14 | 224 | 6.4 | 11.3 | 0.00 | 0.30 | 0.30 | 81 | 1008.7 |
| 20260507004420 | 14 | 220 | 6.4 | 11.3 | 0.00 | 0.30 | 0.30 | 82 | 1008.8 |
| 20260507003422 | 14 | 223 | 1.6 | 8.0 | 0.00 | 0.30 | 0.30 | 81 | 1008.6 |
| 20260507002421 | 14 | 222 | 3.2 | 4.8 | 0.00 | 0.30 | 0.30 | 81 | 1008.7 |
| 20260507001519 | 14 | 260 | 0.0 | 3.2 | 0.00 | 0.30 | 0.30 | 80 | 1008.6 |
| 20260507000520 | 14 | 214 | 3.2 | 6.4 | 0.00 | 0.30 | 0.30 | 80 | 1008.6 |
| 20260506235522 | 14 | 206 | 1.6 | 6.4 | 0.03 | 0.30 | 0.30 | 79 | 1008.3 |
| 20260506234620 | 14 | 225 | 1.6 | 4.8 | 0.05 | 0.30 | 0.30 | 78 | 1008.4 |
| 20260506233621 | 14 | 213 | 4.8 | 9.7 | 0.08 | 0.30 | 0.30 | 78 | 1008.3 |
| 20260506232621 | 14 | 205 | 1.6 | 4.8 | 0.08 | 0.30 | 0.30 | 78 | 1008.4 |
| 20260506231719 | 14 | 217 | 4.8 | 8.0 | 0.08 | 0.30 | 0.30 | 77 | 1008.3 |
| 20260506230719 | 14 | 222 | 1.6 | 3.2 | 0.08 | 0.30 | 0.30 | 77 | 1008.2 |
| 20260506225721 | 15 | 217 | 4.8 | 9.7 | 0.05 | 0.28 | 0.28 | 77 | 1008.3 |
| 20260506224721 | 15 | 215 | 8.0 | 16.1 | 0.05 | 0.25 | 0.25 | 75 | 1008.4 |
| 20260506223720 | 15 | 214 | 3.2 | 4.8 | 0.03 | 0.23 | 0.23 | 75 | 1008.5 |
| 20260506222722 | 15 | 202 | 1.6 | 4.8 | 0.03 | 0.23 | 0.23 | 74 | 1008.6 |
| 20260506221722 | 15 | 225 | 4.8 | 9.7 | 0.03 | 0.23 | 0.23 | 74 | 1008.5 |
| 20260506220820 | 15 | 217 | 3.2 | 6.4 | 0.03 | 0.23 | 0.23 | 74 | 1008.6 |
| 20260506214837 | 15 | 208 | 1.6 | 4.8 | 0.00 | 0.20 | 0.20 | 71 | 1008.8 |
| 20260506213921 | 15 | 219 | 6.4 | 11.3 | 0.00 | 0.20 | 0.20 | 71 | 1008.8 |
| 20260506212922 | 15 | 213 | 1.6 | 6.4 | 0.00 | 0.20 | 0.20 | 70 | 1009.0 |
| 20260506211922 | 15 | 223 | 4.8 | 9.7 | 0.03 | 0.20 | 0.20 | 70 | 1009.1 |
| 20260506211020 | 15 | 222 | 4.8 | 11.3 | 0.05 | 0.20 | 0.20 | 70 | 1009.0 |
| 20260506210021 | 15 | 199 | 3.2 | 4.8 | 0.05 | 0.20 | 0.20 | 69 | 1009.2 |
| 20260506204120 | 15 | 218 | 3.2 | 6.4 | 0.08 | 0.20 | 0.20 | 67 | 1009.3 |
| 20260506202123 | 15 | 222 | 9.7 | 16.1 | 0.08 | 0.18 | 0.18 | 65 | 1009.5 |
| 20260506201120 | 15 | 223 | 3.2 | 9.7 | 0.10 | 0.18 | 0.15 | 64 | 1009.5 |
| 20260506200120 | 15 | 214 | 3.2 | 8.0 | 0.10 | 0.15 | 0.15 | 64 | 1009.4 |
| 20260506195120 | 16 | 222 | 1.6 | 4.8 | 0.13 | 0.15 | 0.15 | 64 | 1009.5 |
| 20260506194219 | 16 | 211 | 1.6 | 6.4 | 0.10 | 0.13 | 0.13 | 62 | 1009.4 |
| 20260506193222 | 16 | 205 | 4.8 | 6.4 | 0.13 | 0.13 | 0.13 | 61 | 1009.4 |
| 20260506191321 | 16 | 223 | 6.4 | 12.9 | 0.08 | 0.08 | 0.08 | 61 | 1009.5 |
| 20260506190320 | 16 | 209 | 3.2 | 4.8 | 0.05 | 0.05 | 0.05 | 60 | 1009.4 |
| 20260506185419 | 17 | 210 | 3.2 | 9.7 | 0.05 | 0.05 | 0.03 | 59 | 1009.4 |
| 20260506184421 | 17 | 217 | 3.2 | 8.0 | 0.03 | 0.03 | 0.03 | 59 | 1009.5 |
| 20260506183421 | 18 | 225 | 4.8 | 8.0 | 0.00 | 0.00 | 0.00 | 59 | 1009.7 |
| 20260506181420 | 19 | 209 | 6.4 | 11.3 | 0.00 | 0.00 | 0.00 | 58 | 1009.6 |
| 20260506180519 | 20 | 220 | 6.4 | 14.5 | 0.00 | 0.00 | 0.00 | 58 | 1009.7 |
| 20260506175522 | 21 | 218 | 11.3 | 16.1 | 0.00 | 0.00 | 0.00 | 59 | 1009.8 |
| 20260506172622 | 22 | 226 | 8.0 | 16.1 | 0.00 | 0.00 | 0.00 | 61 | 1009.6 |
| 20260506171620 | 22 | 214 | 3.2 | 8.0 | 0.00 | 0.00 | 0.00 | 60 | 1009.6 |
| 20260506170619 | 22 | 230 | 4.8 | 9.7 | 0.00 | 0.00 | 0.00 | 62 | 1009.6 |
| 20260506165622 | 22 | 224 | 6.4 | 11.3 | 0.00 | 0.00 | 0.00 | 61 | 1009.8 |
| 20260506164619 | 22 | 208 | 8.0 | 16.1 | 0.00 | 0.00 | 0.00 | 62 | 1009.8 |
| 20260506163621 | 21 | 203 | 1.6 | 3.2 | 0.00 | 0.00 | 0.00 | 63 | 1009.9 |
| 20260506162621 | 21 | 227 | 4.8 | 6.4 | 0.00 | 0.00 | 0.00 | 64 | 1010.2 |
| 20260506161620 | 21 | 217 | 6.4 | 16.1 | 0.00 | 0.00 | 0.00 | 64 | 1010.3 |
| 20260506160719 | 21 | 203 | 8.0 | 16.1 | 0.00 | 0.00 | 0.00 | 64 | 1010.5 |
| 20260506154818 | 21 | 218 | 4.8 | 6.4 | 0.00 | 0.00 | 0.00 | 66 | 1010.8 |
| 20260506153821 | 21 | 243 | 3.2 | 8.0 | 0.00 | 0.00 | 0.00 | 65 | 1011.1 |
| 20260506152919 | 21 | 217 | 8.0 | 14.5 | 0.00 | 0.00 | 0.00 | 66 | 1011.2 |
| 20260506151920 | 21 | 229 | 12.9 | 22.5 | 0.00 | 0.00 | 0.00 | 67 | 1011.2 |
| 20260506151836 | 21 | 215 | 14.5 | 22.5 | 0.00 | 0.00 | 0.00 | 66 | 1011.1 |
| 20260506145819 | 20 | 223 | 3.2 | 8.0 | 0.00 | 0.00 | 0.00 | 67 | 1011.4 |
| 20260506144820 | 20 | 214 | 8.0 | 16.1 | 0.00 | 0.00 | 0.00 | 68 | 1011.6 |
| 20260506143820 | 20 | 243 | 3.2 | 6.4 | 0.00 | 0.00 | 0.00 | 68 | 1011.7 |
| 20260506142821 | 19 | 246 | 8.0 | 17.7 | 0.00 | 0.00 | 0.00 | 68 | 1011.6 |
| 20260506141820 | 19 | 219 | 4.8 | 11.3 | 0.00 | 0.00 | 0.00 | 68 | 1011.5 |
| 20260506140821 | 19 | 215 | 8.0 | 12.9 | 0.00 | 0.00 | 0.00 | 69 | 1011.6 |
| 20260506134922 | 18 | 214 | 8.0 | 14.5 | 0.00 | 0.00 | 0.00 | 69 | 1011.6 |
| 20260506132920 | 18 | 282 | 8.0 | 11.3 | 0.00 | 0.00 | 0.00 | 70 | 1011.8 |
| 20260506131920 | 18 | 209 | 8.0 | 12.9 | 0.00 | 0.00 | 0.00 | 70 | 1012.1 |
| 20260506130920 | 17 | 233 | 3.2 | 8.0 | 0.00 | 0.00 | 0.00 | 69 | 1012.3 |
| 20260506130018 | 17 | 221 | 6.4 | 16.1 | 0.00 | 0.00 | 0.00 | 70 | 1012.2 |
| 20260506124022 | 17 | 236 | 6.4 | 9.7 | 0.00 | 0.00 | 0.00 | 69 | 1012.4 |
| 20260506123020 | 17 | 212 | 8.0 | 11.3 | 0.00 | 0.00 | 0.00 | 70 | 1012.0 |
| 20260506122021 | 17 | 223 | 4.8 | 9.7 | 0.00 | 0.00 | 0.00 | 69 | 1012.3 |
| 20260506121021 | 17 | 238 | 4.8 | 11.3 | 0.00 | 0.00 | 0.00 | 69 | 1012.4 |
| 20260506120020 | 17 | 212 | 6.4 | 16.1 | 0.00 | 0.00 | 0.00 | 69 | 1012.1 |
| 20260506115021 | 16 | 230 | 4.8 | 17.7 | 0.00 | 0.00 | 0.00 | 68 | 1012.3 |
| 20260506114022 | 16 | 216 | 6.4 | 11.3 | 0.00 | 0.00 | 0.00 | 68 | 1012.4 |
| 20260506113020 | 16 | 202 | 3.2 | 6.4 | 0.00 | 0.00 | 0.00 | 67 | 1012.5 |
| 20260506112119 | 16 | 218 | 4.8 | 8.0 | 0.00 | 0.00 | 0.00 | 68 | 1012.8 |
| 20260506111119 | 15 | 223 | 3.2 | 11.3 | 0.00 | 0.00 | 0.00 | 66 | 1012.7 |
| 20260506110120 | 15 | 215 | 4.8 | 8.0 | 0.00 | 0.00 | 0.00 | 67 | 1012.4 |
| 20260506105119 | 15 | 245 | 4.8 | 8.0 | 0.00 | 0.00 | 0.00 | 66 | 1012.6 |
| 20260506104119 | 15 | 219 | 1.6 | 6.4 | 0.00 | 0.00 | 0.00 | 66 | 1012.6 |
| 20260506103120 | 15 | 214 | 3.2 | 6.4 | 0.00 | 0.00 | 0.00 | 66 | 1012.5 |
| 20260506100221 | 15 | 215 | 3.2 | 6.4 | 0.00 | 0.00 | 0.00 | 63 | 1012.5 |
| 20260506094221 | 15 | 222 | 3.2 | 6.4 | 0.00 | 0.00 | 0.00 | 62 | 1012.4 |
| 20260506093219 | 15 | 217 | 4.8 | 11.3 | 0.00 | 0.00 | 0.00 | 63 | 1012.3 |
| 20260506092221 | 15 | 218 | 4.8 | 9.7 | 0.00 | 0.00 | 0.00 | 61 | 1012.4 |
| 20260506091318 | 15 | 209 | 4.8 | 11.3 | 0.00 | 0.00 | 0.00 | 62 | 1012.5 |
| 20260506090320 | 15 | 225 | 1.6 | 4.8 | 0.00 | 0.00 | 0.00 | 61 | 1012.4 |
| 20260506085321 | 15 | 206 | 0.0 | 4.8 | 0.00 | 0.00 | 0.00 | 61 | 1012.3 |
| 20260506084418 | 15 | 204 | 1.6 | 3.2 | 0.00 | 0.00 | 0.00 | 60 | 1012.6 |
| 20260506083419 | 15 | 223 | 3.2 | 6.4 | 0.00 | 0.00 | 0.00 | 60 | 1012.5 |
| 20260506082422 | 15 | 233 | 8.0 | 16.1 | 0.00 | 0.00 | 0.00 | 60 | 1012.5 |
| 20260506081520 | 15 | 242 | 3.2 | 6.4 | 0.00 | 0.00 | 0.00 | 59 | 1012.5 |
| 20260506080535 | 15 | 216 | 6.4 | 11.3 | 0.00 | 0.00 | 0.00 | 58 | 1012.3 |
| 20260506072718 | 16 | 214 | 3.2 | 4.8 | 0.00 | 0.00 | 0.00 | 56 | 1012.4 |
| 20260506071720 | 16 | 221 | 4.8 | 9.7 | 0.00 | 0.00 | 0.00 | 56 | 1012.4 |
| 20260506070721 | 16 | 215 | 3.2 | 8.0 | 0.00 | 0.00 | 0.00 | 56 | 1012.2 |
| 20260506061919 | 17 | 208 | 6.4 | 14.5 | 0.00 | 0.00 | 0.00 | 53 | 1012.1 |
| 20260506060922 | 17 | 212 | 6.4 | 11.3 | 0.00 | 0.00 | 0.00 | 53 | 1012.0 |
| 20260506051021 | 17 | 223 | 4.8 | 6.4 | 0.00 | 0.00 | 0.00 | 51 | 1012.2 |
| 20260506045119 | 17 | 232 | 8.0 | 19.3 | 0.00 | 0.00 | 0.00 | 50 | 1012.3 |
| 20260506043120 | 17 | 222 | 8.0 | 20.9 | 0.00 | 0.00 | 0.00 | 50 | 1012.3 |
| 20260506042119 | 17 | 201 | 3.2 | 8.0 | 0.00 | 0.00 | 0.00 | 49 | 1012.4 |
| 20260506041122 | 17 | 216 | 4.8 | 8.0 | 0.00 | 0.00 | 0.00 | 49 | 1012.4 |
| 20260506040219 | 17 | 222 | 4.8 | 11.3 | 0.00 | 0.00 | 0.00 | 48 | 1012.4 |
| 20260506034231 | 16 | 215 | 6.4 | 9.7 | 0.00 | 0.00 | 0.00 | 48 | 1012.4 |
| 20260506033231 | 16 | 215 | 1.6 | 4.8 | 0.00 | 0.00 | 0.00 | 46 | 1012.4 |
| 20260506032248 | 16 | 261 | 1.6 | 6.4 | 0.00 | 0.00 | 0.00 | 47 | 1012.4 |
| 20260506031229 | 16 | 207 | 9.7 | 14.5 | 0.00 | 0.00 | 0.00 | 45 | 1012.4 |
| 20260506030328 | 16 | 229 | 3.2 | 11.3 | 0.00 | 0.00 | 0.00 | 46 | 1012.5 |
| 20260506025331 | 17 | 218 | 1.6 | 6.4 | 0.00 | 0.00 | 0.00 | 45 | 1012.4 |
| 20260506024328 | 17 | 211 | 8.0 | 17.7 | 0.00 | 0.00 | 0.00 | 45 | 1012.3 |
| 20260506023329 | 17 | 218 | 4.8 | 11.3 | 0.00 | 0.00 | 0.00 | 44 | 1012.4 |
| 20260506022329 | 17 | 218 | 3.2 | 8.0 | 0.00 | 0.00 | 0.00 | 43 | 1012.5 |